Location: Gälforsberget
(66.6500°N, 22.4167°E)
Time: 10:19:01
(UTC+00:00)

Cosmos 2219 Rocket - Pass Details

Date: 11 April 2026
Orbit: 826 x 846 km, 71.0° (Epoch: 19 May)

Event Time Altitude Azimuth Distance (km) Brightness Sun altitude
Rises 22:46:38 0° 275° (W) 3,375 5.3 -14.7°
Reaches altitude 10° 22:49:07 10° 279° (W) 2,443 4.7 -14.7°
Maximum altitude 22:54:38 56° 358° (N) 993 2.9 -14.6°
Drops below altitude 10° 23:00:10 10° 77° (ENE) 2,454 4.9 -14.6°
Sets 23:02:40 0° 82° (E) 3,392 5.6 -14.5°
